TimeCST,TemperatureF,Dew PointF,Humidity,Sea Level PressureIn,VisibilityMPH,Wind Direction,Wind SpeedMPH,Gust SpeedMPH,PrecipitationIn,Events,Conditions,WindDirDegrees,DateUTC
12:53 AM,55.0,46.9,74,30.13,10.0,East,3.5,-,N/A,,Clear,90,2014-01-12 06:53:00
1:53 AM,52.0,46.9,83,30.12,10.0,ESE,4.6,-,N/A,,Clear,120,2014-01-12 07:53:00
2:53 AM,62.1,51.1,67,30.12,9.0,SE,4.6,-,N/A,,Clear,140,2014-01-12 08:53:00
3:49 AM,53.6,50.0,88,30.10,1.8,ESE,3.5,-,N/A,,Clear,110,2014-01-12 09:49:00
3:53 AM,54.0,50.0,86,30.11,0.8,East,3.5,-,N/A,,Clear,100,2014-01-12 09:53:00
4:04 AM,57.2,51.8,82,30.09,1.2,ESE,4.6,-,N/A,,Haze,110,2014-01-12 10:04:00
4:10 AM,57.2,51.8,82,30.10,2.5,East,4.6,-,N/A,,Haze,100,2014-01-12 10:10:00
4:16 AM,55.4,51.8,88,30.09,1.8,East,4.6,-,N/A,,Haze,90,2014-01-12 10:16:00
4:25 AM,60.8,51.8,72,30.09,2.5,East,3.5,-,N/A,,Haze,100,2014-01-12 10:25:00
4:33 AM,57.2,51.8,82,30.10,3.0,ESE,3.5,-,N/A,,Haze,110,2014-01-12 10:33:00
4:39 AM,55.4,51.8,88,30.10,2.0,Calm,Calm,-,N/A,,Clear,0,2014-01-12 10:39:00
4:53 AM,57.0,52.0,83,30.11,1.2,ESE,4.6,-,N/A,,Haze,110,2014-01-12 10:53:00
4:55 AM,57.2,51.8,82,30.10,0.8,ESE,3.5,-,N/A,,Haze,110,2014-01-12 10:55:00
5:53 AM,52.0,46.9,83,30.11,0.8,Calm,Calm,-,N/A,,Haze,0,2014-01-12 11:53:00
6:16 AM,48.2,42.8,82,30.10,1.2,Calm,Calm,-,N/A,,Haze,0,2014-01-12 12:16:00
6:28 AM,48.2,42.8,82,30.10,0.8,Calm,Calm,-,N/A,,Haze,0,2014-01-12 12:28:00
6:53 AM,48.9,45.0,86,30.10,0.5,East,3.5,-,N/A,Fog,Fog,100,2014-01-12 12:53:00
6:57 AM,48.2,44.6,87,30.10,1.0,East,4.6,-,N/A,,Clear,100,2014-01-12 12:57:00
7:00 AM,50.0,46.4,87,30.10,2.0,East,3.5,-,N/A,,Clear,100,2014-01-12 13:00:00
7:06 AM,51.8,46.4,82,30.10,3.0,East,3.5,-,N/A,,Clear,90,2014-01-12 13:06:00
7:23 AM,51.8,48.2,88,30.10,2.0,East,3.5,-,N/A,,Clear,90,2014-01-12 13:23:00
7:26 AM,53.6,48.2,82,30.10,1.0,Calm,Calm,-,N/A,,Clear,0,2014-01-12 13:26:00
7:33 AM,53.6,50.0,88,30.11,0.5,East,3.5,-,N/A,Fog,Fog,100,2014-01-12 13:33:00
7:41 AM,53.6,50.0,88,30.11,1.2,East,4.6,-,N/A,,Clear,100,2014-01-12 13:41:00
7:46 AM,53.6,51.8,94,30.11,2.5,East,4.6,-,N/A,,Clear,100,2014-01-12 13:46:00
7:53 AM,55.0,51.1,86,30.12,4.0,SE,4.6,-,N/A,,Clear,130,2014-01-12 13:53:00
8:53 AM,73.9,57.9,57,30.14,10.0,SSE,3.5,-,N/A,,Clear,160,2014-01-12 14:53:00
9:53 AM,78.1,57.0,48,30.13,10.0,SE,6.9,-,N/A,,Clear,130,2014-01-12 15:53:00
10:53 AM,78.8,55.9,45,30.12,10.0,SSE,9.2,-,N/A,,Clear,150,2014-01-12 16:53:00
11:53 AM,78.8,57.0,47,30.10,10.0,SSE,8.1,-,N/A,,Clear,160,2014-01-12 17:53:00
12:53 PM,78.8,57.9,49,30.06,10.0,SSE,6.9,-,N/A,,Clear,160,2014-01-12 18:53:00
1:53 PM,78.8,59.0,51,30.04,10.0,South,8.1,-,N/A,,Clear,180,2014-01-12 19:53:00
2:53 PM,79.0,60.1,52,30.00,10.0,Calm,Calm,-,0.00,,Scattered Clouds,0,2014-01-12 20:53:00
3:53 PM,80.1,60.1,50,29.98,10.0,SE,6.9,-,N/A,,Scattered Clouds,140,2014-01-12 21:53:00
4:53 PM,81.0,60.1,49,29.97,10.0,SE,8.1,-,N/A,,Clear,140,2014-01-12 22:53:00
5:53 PM,80.1,60.1,50,29.98,10.0,South,8.1,-,N/A,,Partly Cloudy,170,2014-01-12 23:53:00
6:53 PM,81.0,62.1,52,29.98,10.0,SSE,12.7,20.7,N/A,,Mostly Cloudy,150,2014-01-13 00:53:00
7:53 PM,77.0,62.1,60,29.94,9.0,SSE,13.8,-,0.00,,Partly Cloudy,150,2014-01-13 01:53:00
8:53 PM,77.0,62.1,60,29.95,7.0,SSE,12.7,21.9,0.00,Rain,Light Rain,150,2014-01-13 02:53:00
9:51 PM,75.2,64.4,69,29.96,7.0,Variable,5.8,-,0.00,,Mostly Cloudy,0,2014-01-13 03:51:00
9:53 PM,77.0,64.0,64,29.96,7.0,Variable,6.9,-,0.00,,Mostly Cloudy,0,2014-01-13 03:53:00
10:53 PM,75.9,64.9,69,29.93,7.0,SSW,4.6,-,N/A,,Overcast,210,2014-01-13 04:53:00
11:29 PM,78.8,64.4,61,29.92,7.0,SSW,5.8,-,N/A,,Mostly Cloudy,210,2014-01-13 05:29:00
11:53 PM,75.9,64.9,69,29.93,7.0,Variable,5.8,-,N/A,,Overcast,0,2014-01-13 05:53:00